{"data":{"norad_id":61066,"epoch":"2026-09-21T11:01:25.894272Z","epoch_age_seconds":109225,"freshness":"FRESH","line1":"1 61066U 24164S   26264.45932748  .00000023  00000+0  11818-4 0  9995","line2":"2 61066  53.1592 260.8762 0001283  87.0724 273.0425 15.34393470113466","mean_motion":15.3439347,"eccentricity":0.0001283,"inclination_deg":53.1592,"raan_deg":260.8762,"arg_perigee_deg":87.0724,"mean_anomaly_deg":273.0425,"bstar":1.1818e-5,"rev_number":11346,"period_min":93.848157474236,"perigee_km":461.84496651913,"apogee_km":463.60033110501,"semimajor_km":6840.8596488121,"source":"CELESTRAK","updated_at":"2026-09-22T09:00:49.334668Z"}}